| time (UTC) | temp F | wind direction | speed MPH | gust MPH | rain 1hr in | rain 24hr in | rain mn in | humidity % | barometer mb |
| 20260504011344 | 46 | 217 | 1.0 | 1.0 | 0.00 | 0.00 | 0.00 | 71 | 1014.9 |
| 20260504010342 | 47 | 216 | 0.0 | 1.0 | 0.00 | 0.00 | 0.00 | 67 | 1014.9 |
| 20260504005341 | 48 | 220 | 0.0 | 0.0 | 0.00 | 0.00 | 0.00 | 64 | 1015.0 |
| 20260504004336 | 48 | 216 | 0.0 | 0.0 | 0.00 | 0.00 | 0.00 | 62 | 1014.8 |
| 20260504003336 | 50 | 215 | 0.0 | 0.0 | 0.00 | 0.00 | 0.00 | 58 | 1014.5 |
| 20260504002335 | 51 | 218 | 0.0 | 0.0 | 0.00 | 0.00 | 0.00 | 54 | 1014.5 |
| 20260504001330 | 53 | 222 | 0.0 | 0.0 | 0.00 | 0.00 | 0.00 | 53 | 1014.4 |
| 20260504000329 | 55 | 220 | 0.0 | 0.0 | 0.00 | 0.00 | 0.00 | 50 | 1014.6 |
| 20260503235324 | 57 | 219 | 0.0 | 0.0 | 0.00 | 0.00 | 0.00 | 47 | 1014.5 |
| 20260503234324 | 59 | 223 | 0.0 | 0.0 | 0.00 | 0.00 | 0.00 | 41 | 1014.4 |
| 20260503233323 | 60 | 221 | 0.0 | 0.0 | 0.00 | 0.00 | 0.00 | 40 | 1014.5 |
| 20260503232323 | 63 | 236 | 0.0 | 0.0 | 0.00 | 0.00 | 0.00 | 37 | 1014.3 |
| 20260503231323 | 63 | 275 | 1.0 | 2.0 | 0.00 | 0.00 | 0.00 | 36 | 1014.0 |
| 20260503230322 | 64 | 224 | 1.0 | 1.0 | 0.00 | 0.00 | 0.00 | 35 | 1014.1 |
| 20260503225322 | 64 | 213 | 0.0 | 0.0 | 0.00 | 0.00 | 0.00 | 33 | 1014.0 |
| 20260503224321 | 64 | 211 | 4.0 | 6.0 | 0.00 | 0.00 | 0.00 | 33 | 1014.1 |
| 20260503223317 | 64 | 270 | 1.0 | 1.0 | 0.00 | 0.00 | 0.00 | 35 | 1014.1 |
| 20260503222311 | 65 | 262 | 5.0 | 7.0 | 0.00 | 0.00 | 0.00 | 33 | 1014.2 |
| 20260503221306 | 64 | 251 | 4.0 | 6.0 | 0.00 | 0.00 | 0.00 | 33 | 1014.0 |
| 20260503220305 | 65 | 31 | 4.0 | 4.0 | 0.00 | 0.00 | 0.00 | 34 | 1014.2 |
| 20260503215305 | 65 | 246 | 1.0 | 2.0 | 0.00 | 0.00 | 0.00 | 34 | 1014.1 |
| 20260503214300 | 65 | 241 | 2.0 | 3.0 | 0.00 | 0.00 | 0.00 | 33 | 1014.3 |
| 20260503213300 | 65 | 229 | 1.0 | 2.0 | 0.00 | 0.00 | 0.00 | 34 | 1014.2 |
| 20260503212255 | 65 | 255 | 5.0 | 8.0 | 0.00 | 0.00 | 0.00 | 32 | 1014.5 |
| 20260503211255 | 65 | 248 | 2.0 | 3.0 | 0.00 | 0.00 | 0.00 | 35 | 1014.5 |
| 20260503210253 | 64 | 280 | 4.0 | 6.0 | 0.00 | 0.00 | 0.00 | 31 | 1014.5 |
| 20260503205146 | 65 | 303 | 3.0 | 3.0 | 0.00 | 0.00 | 0.00 | 37 | 1014.4 |
| 20260503204146 | 65 | 303 | 3.0 | 3.0 | 0.00 | 0.00 | 0.00 | 37 | 1014.4 |
| 20260503203141 | 65 | 285 | 2.0 | 3.0 | 0.00 | 0.00 | 0.00 | 35 | 1014.5 |
| 20260503202136 | 65 | 285 | 2.0 | 3.0 | 0.00 | 0.00 | 0.00 | 35 | 1014.5 |
| 20260503201131 | 64 | 246 | 5.0 | 6.0 | 0.00 | 0.00 | 0.00 | 32 | 1014.7 |
| 20260503200129 | 64 | 260 | 1.0 | 2.0 | 0.00 | 0.00 | 0.00 | 37 | 1015.0 |
| 20260503195129 | 65 | 184 | 2.0 | 3.0 | 0.00 | 0.00 | 0.00 | 36 | 1015.1 |
| 20260503194127 | 64 | 97 | 6.0 | 7.0 | 0.00 | 0.00 | 0.00 | 38 | 1015.4 |
| 20260503193126 | 64 | 282 | 6.0 | 8.0 | 0.00 | 0.00 | 0.00 | 34 | 1015.3 |
| 20260503192123 | 64 | 239 | 3.0 | 4.0 | 0.00 | 0.00 | 0.00 | 38 | 1015.7 |
| 20260503191123 | 63 | 280 | 2.0 | 3.0 | 0.00 | 0.00 | 0.00 | 38 | 1015.6 |
| 20260503190123 | 62 | 313 | 6.0 | 7.0 | 0.00 | 0.00 | 0.00 | 39 | 1016.0 |
| 20260503185120 | 62 | 190 | 2.0 | 4.0 | 0.00 | 0.00 | 0.00 | 44 | 1016.0 |
| 20260503184118 | 60 | 288 | 4.0 | 4.0 | 0.00 | 0.00 | 0.00 | 40 | 1016.1 |
| 20260503183118 | 62 | 266 | 2.0 | 3.0 | 0.00 | 0.00 | 0.00 | 39 | 1015.9 |
| 20260503182114 | 62 | 324 | 5.0 | 7.0 | 0.00 | 0.00 | 0.00 | 39 | 1016.3 |
| 20260503181113 | 62 | 66 | 5.0 | 7.0 | 0.00 | 0.00 | 0.00 | 37 | 1016.2 |
| 20260503180108 | 60 | 273 | 7.0 | 9.0 | 0.00 | 0.00 | 0.00 | 40 | 1016.4 |
| 20260503175108 | 60 | 276 | 3.0 | 4.0 | 0.00 | 0.00 | 0.00 | 39 | 1016.6 |
| 20260503174107 | 60 | 217 | 5.0 | 7.0 | 0.00 | 0.00 | 0.00 | 42 | 1016.6 |
| 20260503173105 | 61 | 245 | 4.0 | 9.0 | 0.00 | 0.00 | 0.00 | 40 | 1016.7 |
| 20260503172105 | 60 | 311 | 4.0 | 6.0 | 0.00 | 0.00 | 0.00 | 46 | 1016.7 |
| 20260503171105 | 59 | 279 | 4.0 | 6.0 | 0.00 | 0.00 | 0.00 | 45 | 1016.8 |
| 20260503170104 | 61 | 286 | 3.0 | 3.0 | 0.00 | 0.00 | 0.00 | 37 | 1016.9 |
| 20260503131019 | 50 | 294 | 2.0 | 3.0 | 0.00 | 0.00 | 0.00 | 56 | 1018.0 |
| 20260503080913 | 42 | 247 | 2.0 | 3.0 | 0.00 | 0.00 | 0.00 | 73 | 1015.3 |
| 20260503072903 | 41 | 255 | 1.0 | 1.0 | 0.00 | 0.00 | 0.00 | 74 | 1014.8 |
| 20260503071903 | 41 | 267 | 1.0 | 1.0 | 0.00 | 0.00 | 0.00 | 73 | 1014.8 |
| 20260503070902 | 41 | 204 | 2.0 | 3.0 | 0.00 | 0.00 | 0.00 | 75 | 1014.9 |
| 20260503054837 | 39 | 230 | 0.0 | 1.0 | 0.00 | 0.00 | 0.00 | 80 | 1014.4 |
| 20260503053837 | 40 | 218 | 0.0 | 0.0 | 0.00 | 0.00 | 0.00 | 79 | 1014.6 |
| 20260503052837 | 41 | 227 | 0.0 | 0.0 | 0.00 | 0.00 | 0.00 | 76 | 1014.6 |
| 20260503051836 | 41 | 230 | 0.0 | 0.0 | 0.00 | 0.00 | 0.00 | 75 | 1014.6 |
| 20260503050835 | 42 | 211 | 0.0 | 0.0 | 0.00 | 0.00 | 0.00 | 72 | 1014.6 |
| 20260503045834 | 42 | 222 | 0.0 | 0.0 | 0.00 | 0.00 | 0.00 | 73 | 1014.8 |
| 20260503044833 | 42 | 231 | 1.0 | 1.0 | 0.00 | 0.00 | 0.00 | 73 | 1014.9 |
| 20260503043833 | 42 | 224 | 1.0 | 1.0 | 0.00 | 0.00 | 0.00 | 72 | 1014.7 |
| 20260503042832 | 42 | 216 | 0.0 | 0.0 | 0.00 | 0.00 | 0.00 | 71 | 1014.8 |
| 20260503041830 | 43 | 224 | 0.0 | 0.0 | 0.00 | 0.00 | 0.00 | 70 | 1014.7 |
| 20260503040826 | 44 | 216 | 0.0 | 0.0 | 0.00 | 0.00 | 0.00 | 68 | 1014.7 |
| 20260503035826 | 45 | 219 | 0.0 | 0.0 | 0.00 | 0.00 | 0.00 | 66 | 1014.7 |
| 20260503034825 | 46 | 222 | 0.0 | 1.0 | 0.00 | 0.00 | 0.00 | 64 | 1014.8 |
| 20260503033825 | 46 | 261 | 1.0 | 2.0 | 0.00 | 0.00 | 0.00 | 62 | 1014.8 |
| 20260503032821 | 47 | 225 | 1.0 | 1.0 | 0.00 | 0.00 | 0.00 | 61 | 1014.6 |
| 20260503031816 | 48 | 297 | 3.0 | 3.0 | 0.00 | 0.00 | 0.00 | 60 | 1014.7 |
| 20260503030816 | 49 | 277 | 2.0 | 2.0 | 0.00 | 0.00 | 0.00 | 58 | 1014.5 |
| 20260503025815 | 49 | 219 | 4.0 | 6.0 | 0.00 | 0.00 | 0.00 | 58 | 1014.6 |
| 20260503024815 | 49 | 256 | 2.0 | 2.0 | 0.00 | 0.00 | 0.00 | 58 | 1014.4 |
| 20260503023814 | 50 | 220 | 2.0 | 2.0 | 0.00 | 0.00 | 0.00 | 56 | 1014.5 |
| 20260503022814 | 50 | 277 | 3.0 | 4.0 | 0.00 | 0.00 | 0.00 | 57 | 1014.5 |
| 20260503021810 | 50 | 290 | 1.0 | 2.0 | 0.00 | 0.00 | 0.00 | 59 | 1014.2 |
| 20260503020810 | 50 | 222 | 0.0 | 0.0 | 0.00 | 0.00 | 0.00 | 59 | 1014.3 |
| 20260503015810 | 50 | 214 | 0.0 | 0.0 | 0.00 | 0.00 | 0.00 | 60 | 1014.2 |
| 20260503014809 | 51 | 224 | 0.0 | 1.0 | 0.00 | 0.00 | 0.00 | 58 | 1014.0 |
| 20260503013804 | 51 | 221 | 0.0 | 0.0 | 0.00 | 0.00 | 0.00 | 58 | 1014.0 |
| 20260503012758 | 51 | 229 | 1.0 | 1.0 | 0.00 | 0.00 | 0.00 | 59 | 1013.9 |